Regional Weather Roundup
Issued by NWS Little Rock, AR

Home | Current Version | Previous Version | Text Only | Print | Product List | Glossary On
Versions: 1 2 3 4 5 6 7 8 9 10 11 12 13 14 15 16 17 18 19 20 21 22 23 24 25 26 27 28 29 30 31 32 33 34 35 36 37 38 39 40 41 42 43 44 45 46 47 48 49 50
000
ASUS44 KLZK 182005
RWRLZK

WEATHER ROUNDUP FOR ARKANSAS
NATIONAL WEATHER SERVICE LITTLE ROCK AR
200 PM CST TUE FEB 18 2020

NOTE: "FAIR" INDICATES FEW OR NO CLOUDS BELOW 12,000 FEET WITH NO
SIGNIFICANT WEATHER AND/OR OBSTRUCTIONS TO VISIBILITY.

ARZ001-003-010-029-182100-
NORTHWEST ARKANSAS

CITY           SKY/WX    TMP DP  RH WIND       PRES   REMARKS
FAYETTEVILLE   CLOUDY    50  37  61 N9G16     30.21S
FORT SMITH     CLOUDY    52  38  58 SE3       30.18F
HARRISON       PTSUNNY   44  35  70 N7        30.20F
BENTONVILLE    CLOUDY    42  33  70 N12       30.25R
ROGERS         CLOUDY    41  32  70 N12G18    30.24R
SILOAM SPGS    PTSUNNY   44  34  67 N17       30.24R
HIGHFILL       CLOUDY    44  32  62 N15       30.23R
SPRINGDALE     CLOUDY    45  36  70 N13       30.23R
$$

ARZ004-005-016-182100-
NORTH CENTRAL ARKANSAS

CITY           SKY/WX    TMP DP  RH WIND       PRES   REMARKS
BATESVILLE     LGT RAIN N/A N/A N/A VRB6      30.19F
FLIPPIN        LGT RAIN  41  37  87 NW9       30.23S
MTN HOME       CLOUDY    41  39  93 CALM      30.21R
$$

ARZ040-041-182100-
WEST CENTRAL ARKANSAS

CITY           SKY/WX    TMP DP  RH WIND       PRES   REMARKS
MENA           CLOUDY    46  43  87 E13       30.14F
MOUNT IDA      LGT RAIN  45  41  86 VRB7      30.14F
$$

ARZ009-017-025-026-028-182100-
NORTHEAST ARKANSAS

CITY           SKY/WX    TMP DP  RH WIND       PRES   REMARKS
JONESBORO      RAIN      43  39  86 N9G28     30.20R FOG
NEWPORT        LGT RAIN  44  41  89 N14       30.20F
WALNUT RIDGE   LGT RAIN  44  41  89 N13       30.20R
BLYTHEVILLE    CLOUDY    45  45 100 N17       30.19R
$$

ARZ022-023-033-042-044-182100-
CENTRAL ARKANSAS

CITY           SKY/WX    TMP DP  RH WIND       PRES   REMARKS
LITTLE ROCK    LGT RAIN  45  41  86 N21       30.18R
N LITTLE ROCK    N/A     42  40  93 NE15      30.18F
JACKSONVILLE   TSTM      45  41  87 N7        30.21R
SEARCY         LGT RAIN  44  42  93 N20       30.16F
HOT SPRINGS    HVY RAIN  45  40  82 VRB5      30.17R
RUSSELLVILLE   LGT RAIN  47  40  76 N7        30.17F
CLINTON        DRIZZLE   45  37  76 N3G14     30.21R
$$

ARZ036-182100-
EAST ARKANSAS

CITY           SKY/WX    TMP DP  RH WIND       PRES   REMARKS
WEST MEMPHIS   CLOUDY    46  42  86 N21G31    30.14R
$$

ARZ050-053-066-070-073-182100-
SOUTHWEST ARKANSAS

CITY           SKY/WX    TMP DP  RH WIND       PRES   REMARKS
ARKADELPHIA    CLOUDY    50  44  80 N15G30    30.12R
CAMDEN         DRIZZLE   55  50  82 N17G32    30.05R
TEXARKANA      LGT RAIN  52  50  93 NE18G32   30.05R
EL DORADO      HVY RAIN  59  59 100 N14G24    30.02R FOG
DE QUEEN       LGT RAIN  50  47  89 NE15G23   30.07F
$$

ARZ056-057-069-182100-
SOUTHEAST ARKANSAS

CITY           SKY/WX    TMP DP  RH WIND       PRES   REMARKS
PINE BLUFF     LGT RAIN  49  44  83 N23G33    30.10F
STUTTGART      CLOUDY    48  45  89 N22G32    30.12S
MONTICELLO     LGT RAIN  57  54  89 N12G21    30.04R

$$





USA.gov is the U.S. government's official web portal to all federal, state and local government web resources and services.